FW8731 Weather Reports


Display with metric or nautical units.
time (UTC)temp
F
wind
direction
speed
MPH
gust
MPH
rain 1hr
in
rain 24hr
in
rain mn
in
humidity
%
barometer
mb
20260831053117 64 0 0.0 1.0 0.00 0.00 0.00 51 1013.1
20260831051547 65 306 0.0 1.0 0.00 0.00 0.00 49 1013.1
20260831050128 67 0 0.0 2.0 0.00 0.00 0.00 47 1013.2
20260831044554 67 306 0.0 1.0 0.00 0.00 0.00 47 1013.1
20260831043048 68 306 0.0 1.0 0.00 0.00 0.00 46 1013.0
20260831041612 70 0 0.0 1.0 0.00 0.00 0.00 44 1012.8
20260831040050 71 306 0.0 2.0 0.00 0.00 0.00 42 1012.5
20260831034551 73 306 0.0 2.0 0.00 0.00 0.00 40 1012.4
20260831033108 74 306 0.0 2.0 0.00 0.00 0.00 39 1012.2
20260831031550 75 305 1.0 2.0 0.00 0.00 0.00 38 1012.0
20260831030046 76 305 1.0 2.0 0.00 0.00 0.00 37 1011.9
20260831024545 76 304 0.0 1.0 0.00 0.00 0.00 38 1011.7
20260831023052 78 0 0.0 2.0 0.00 0.00 0.00 40 1011.7
20260831021549 79 0 0.0 3.0 0.00 0.00 0.00 35 1011.6
20260831020105 82 221 0.0 2.0 0.00 0.00 0.00 36 1011.5
20260831014558 85 221 1.0 3.0 0.00 0.00 0.00 34 1011.4
20260831013046 85 187 2.0 10.0 0.00 0.00 0.00 29 1011.4
20260831011553 86 184 3.0 9.0 0.00 0.00 0.00 29 1011.3
20260831010049 86 207 3.0 9.0 0.00 0.00 0.00 28 1011.3
20260831004558 87 177 4.0 15.0 0.00 0.00 0.00 28 1011.5
20260831003049 87 208 3.0 10.0 0.00 0.00 0.00 27 1011.5
20260831001555 87 175 3.0 11.0 0.00 0.00 0.00 27 1011.6
20260831000059 86 177 1.0 8.0 0.00 0.00 0.00 28 1011.8
20260830234551 86 181 1.0 6.0 0.00 0.00 0.00 28 1012.0
20260830233058 86 184 2.0 8.0 0.00 0.00 0.00 30 1012.2
20260830231555 86 206 2.0 7.0 0.00 0.00 0.00 31 1012.4
20260830230054 85 213 3.0 7.0 0.00 0.00 0.00 30 1012.6
20260830224547 85 209 1.0 7.0 0.00 0.00 0.00 31 1012.8
20260830223055 85 220 2.0 5.0 0.00 0.00 0.00 30 1013.2
20260830221553 85 250 0.0 6.0 0.00 0.00 0.00 29 1013.4
20260830214551 83 288 2.0 7.0 0.00 0.00 0.00 31 1014.1
20260830213048 82 266 2.0 6.0 0.00 0.00 0.00 29 1014.4
20260830211546 81 42 1.0 4.0 0.00 0.00 0.00 31 1014.6
20260830210054 80 275 2.0 6.0 0.00 0.00 0.00 32 1014.9
20260830204551 79 173 1.0 4.0 0.00 0.00 0.00 32 1015.2
20260830203048 78 195 2.0 6.0 0.00 0.00 0.00 34 1015.3
20260830201545 77 277 2.0 5.0 0.00 0.00 0.00 36 1015.7
20260830200054 76 197 2.0 5.0 0.00 0.00 0.00 37 1015.8
20260830194553 75 203 1.0 5.0 0.00 0.00 0.00 38 1015.9
20260830193046 74 175 1.0 4.0 0.00 0.00 0.00 40 1016.2
20260830191554 73 192 3.0 5.0 0.00 0.00 0.00 40 1016.5
20260830190100 72 264 1.0 6.0 0.00 0.00 0.00 43 1016.7
20260830184547 71 293 1.0 4.0 0.00 0.00 0.00 44 1017.1
20260830183048 70 280 2.0 3.0 0.00 0.00 0.00 46 1017.4
20260830181546 68 181 1.0 4.0 0.00 0.00 0.00 48 1017.5
20260830180047 69 0 1.0 3.0 0.00 0.00 0.00 47 1017.8
20260830174559 67 119 0.0 2.0 0.00 0.00 0.00 49 1018.0
20260830173100 64 0 0.0 2.0 0.00 0.00 0.00 56 1018.1
20260830171553 62 124 0.0 2.0 0.00 0.00 0.00 61 1018.1
20260830170047 59 124 0.0 3.0 0.00 0.00 0.00 67 1018.3
20260830164548 56 124 1.0 2.0 0.00 0.00 0.00 71 1018.6
20260830163046 53 0 0.0 0.0 0.00 0.00 0.00 77 1018.8
20260830161600 50 0 0.0 0.0 0.00 0.00 0.00 80 1018.8
20260830160103 49 0 0.0 0.0 0.00 0.00 0.00 83 1019.1
20260830154548 47 0 0.0 0.0 0.00 0.00 0.00 85 1019.2
20260830153048 46 0 0.0 0.0 0.00 0.00 0.00 86 1019.3
20260830151601 44 0 0.0 0.0 0.00 0.00 0.00 87 1019.3
20260830150056 44 0 0.0 0.0 0.00 0.00 0.00 86 1019.4
20260830144557 43 0 0.0 0.0 0.00 0.00 0.00 86 1019.5
20260830143045 43 0 0.0 0.0 0.00 0.00 0.00 86 1019.4
20260830141553 44 0 0.0 0.0 0.00 0.00 0.00 87 1019.4
20260830134555 43 0 0.0 0.0 0.00 0.00 0.00 86 1019.1
20260830133045 43 0 0.0 0.0 0.00 0.00 0.00 85 1019.1
20260830131600 43 0 0.0 0.0 0.00 0.00 0.00 85 1019.0
20260830130058 44 0 0.0 0.0 0.00 0.00 0.00 84 1019.0
20260830124548 44 0 0.0 0.0 0.00 0.00 0.00 84 1019.0
20260830123048 44 0 0.0 0.0 0.00 0.00 0.00 83 1019.0
20260830121551 45 0 0.0 0.0 0.00 0.00 0.00 84 1018.9
20260830114558 45 0 0.0 0.0 0.00 0.00 0.00 83 1018.7
20260830113047 45 0 0.0 1.0 0.00 0.00 0.00 82 1018.6
20260830111557 46 0 0.0 0.0 0.00 0.00 0.00 80 1018.6
20260830110047 47 0 0.0 0.0 0.00 0.00 0.00 79 1018.7
20260830104552 47 0 0.0 1.0 0.00 0.00 0.00 80 1018.5
20260830103058 47 0 0.0 1.0 0.00 0.00 0.00 78 1018.6
20260830101558 48 0 0.0 0.0 0.00 0.00 0.00 78 1018.6
20260830100054 48 0 0.0 0.0 0.00 0.00 0.00 76 1018.7
20260830094547 49 0 0.0 0.0 0.00 0.00 0.00 76 1018.6
20260830093047 49 0 0.0 1.0 0.00 0.00 0.00 76 1018.6
20260830091551 49 0 0.0 1.0 0.00 0.00 0.00 75 1018.7
20260830090046 50 0 0.0 0.0 0.00 0.00 0.00 74 1018.6
20260830084557 50 0 0.0 1.0 0.00 0.00 0.00 74 1018.6
20260830083051 51 0 0.0 0.0 0.00 0.00 0.00 72 1018.6
20260830081547 51 0 0.0 0.0 0.00 0.00 0.00 71 1018.6
20260830080100 52 0 0.0 0.0 0.00 0.00 0.00 70 1018.6
20260830074552 53 0 0.0 1.0 0.00 0.00 0.00 69 1018.7
20260830073049 53 0 0.0 0.0 0.00 0.00 0.00 67 1018.7
20260830071543 54 0 0.0 1.0 0.00 0.00 0.00 67 1018.6
20260830070054 55 0 0.0 0.0 0.00 0.00 0.00 65 1018.6
20260830064604 56 0 0.0 0.0 0.00 0.00 0.00 64 1018.5
20260830063101 57 0 0.0 1.0 0.00 0.00 0.00 62 1018.6
20260830061553 58 0 0.0 1.0 0.00 0.00 0.00 59 1018.5
20260830060045 59 0 0.0 2.0 0.00 0.00 0.00 59 1018.5
20260830054552 60 0 0.0 1.0 0.00 0.00 0.00 57 1018.4